Location: Hopville
(44.8032°N, 123.1329°W)
Time: 04:49:06
(UTC+00:00)

GEOS 3 Rocket - Pass Details

Date: 24 January 2021
Orbit: 771 x 848 km, 115.0° (Epoch: 26 February)

Event Time Altitude Azimuth Distance (km) Brightness Sun altitude
Rises 14:12:58 0° 150° (SSE) 3,362 7.5 -15.3°
Reaches altitude 10° 14:15:17 10° 153° (SSE) 2,441 6.7 -14.9°
Maximum altitude 14:20:34 65° 235° (SW) 923 3.7 -14.0°
Enters shadow 14:25:25 13° 316° (NW) 2,268 5.4 -13.2°
